PHKET EHAM-LOWW

Flight info

Callsign PHKET
Flight time N/A
Altitude 39000
Route EHAM/04 ARNEM L620 HMM DCT NOMKA DCT OMELO DCT EVIKU DCT BITSI DCT MIKOV MIKOV8W
Aircraft CL60/M-SBDE1E2E3FGHIJ1J4J5J7M3RWXYZ/LB1V1D1

Departure

Time 2026-04-29 17:50
Airport Amsterdam Airport Schiphol (EHAM)

Arrival

Time N/A
Airport Vienna International Airport (LOWW)
Time Latitude Longitude Altitude Speed Heading
2026-04-29 17:38 52.31030 4.80473 -3 ft 0 kts 131°
2026-04-29 17:44 52.31023 4.80489 -2 ft 4 kts 125°
2026-04-29 17:45 52.31018 4.80549 0 ft 6 kts 64°
2026-04-29 17:45 52.31062 4.80617 1 ft 11 kts 42°
2026-04-29 17:45 52.31128 4.80710 3 ft 9 kts 37°
2026-04-29 17:45 52.31195 4.80638 0 ft 18 kts 311°
2026-04-29 17:46 52.31244 4.80549 -4 ft 0 kts 307°
2026-04-29 17:46 52.31250 4.80524 -4 ft 5 kts 274°
2026-04-29 17:46 52.31231 4.80408 -7 ft 15 kts 222°
2026-04-29 17:46 52.31128 4.80252 -9 ft 24 kts 216°
2026-04-29 17:47 52.30985 4.80056 -5 ft 29 kts 223°
2026-04-29 17:47 52.30824 4.79823 -1 ft 21 kts 221°
2026-04-29 17:47 52.30696 4.79641 -2 ft 28 kts 221°
2026-04-29 17:47 52.30533 4.79401 -6 ft 35 kts 221°
2026-04-29 17:48 52.30370 4.79170 -5 ft 26 kts 224°
2026-04-29 17:48 52.30236 4.78979 -3 ft 25 kts 225°
2026-04-29 17:48 52.30097 4.78784 -3 ft 27 kts 222°
2026-04-29 17:48 52.30038 4.78632 -3 ft 14 kts 291°
2026-04-29 17:49 52.30108 4.78506 -7 ft 7 kts 318°
2026-04-29 17:49 52.30143 4.78498 -7 ft 0 kts 43°
2026-04-29 17:49 52.30161 4.78527 -7 ft 12 kts 44°
2026-04-29 17:50 52.30298 4.78720 -7 ft 62 kts 43°
2026-04-29 17:50 52.30913 4.79609 -5 ft 167 kts 38°
2026-04-29 17:50 52.31632 4.80610 477 ft 200 kts 44°
2026-04-29 17:50 52.32360 4.82481 1522 ft 194 kts 83°
2026-04-29 17:51 52.32027 4.84680 1482 ft 222 kts 117°
2026-04-29 17:51 52.31231 4.87007 1228 ft 247 kts 110°
2026-04-29 17:51 52.30718 4.89659 1835 ft 238 kts 103°
2026-04-29 17:51 52.30284 4.92179 2348 ft 233 kts 104°
2026-04-29 17:52 52.29840 4.94729 2691 ft 233 kts 104°
2026-04-29 17:52 52.29543 4.96425 2919 ft 233 kts 104°
2026-04-29 17:52 52.28950 4.99831 3337 ft 235 kts 104°
2026-04-29 17:52 52.28506 5.02387 3670 ft 238 kts 104°
2026-04-29 17:53 52.28056 5.04973 4001 ft 240 kts 104°
2026-04-29 17:53 52.27600 5.07592 4343 ft 241 kts 104°
2026-04-29 17:53 52.27137 5.10252 4716 ft 241 kts 104°
2026-04-29 17:53 52.26679 5.12836 5040 ft 238 kts 104°
2026-04-29 17:54 52.26201 5.15572 5798 ft 262 kts 105°
2026-04-29 17:54 52.25704 5.18314 7268 ft 258 kts 104°
2026-04-29 17:54 52.25207 5.21069 8535 ft 258 kts 104°
2026-04-29 17:54 52.24699 5.23876 9598 ft 263 kts 103°
2026-04-29 17:55 52.24291 5.26752 10587 ft 267 kts 94°
2026-04-29 17:55 52.24125 5.29732 11592 ft 269 kts 92°
2026-04-29 17:55 52.23888 5.32775 12512 ft 276 kts 98°
2026-04-29 17:55 52.23448 5.35816 13413 ft 280 kts 99°
2026-04-29 17:56 52.23003 5.38870 14251 ft 284 kts 99°
2026-04-29 17:56 52.22548 5.42008 15031 ft 289 kts 99°
2026-04-29 17:56 52.22082 5.45212 15849 ft 291 kts 99°
2026-04-29 17:56 52.21615 5.48408 16606 ft 294 kts 99°
2026-04-29 17:57 52.21145 5.51607 17284 ft 297 kts 99°
2026-04-29 17:57 52.20660 5.54920 17969 ft 300 kts 99°
2026-04-29 17:57 52.20181 5.58209 18625 ft 303 kts 99°
2026-04-29 17:57 52.19862 5.60402 19050 ft 305 kts 98°
2026-04-29 17:58 52.19204 5.64912 19846 ft 308 kts 98°
2026-04-29 17:58 52.18711 5.68285 20410 ft 311 kts 99°
2026-04-29 17:58 52.18207 5.71720 20991 ft 314 kts 99°
2026-04-29 17:58 52.17706 5.75148 21544 ft 315 kts 99°
2026-04-29 17:59 52.17195 5.78625 22102 ft 317 kts 99°
2026-04-29 17:59 52.16678 5.82159 22589 ft 321 kts 99°
2026-04-29 17:59 52.16160 5.85682 23092 ft 322 kts 99°
2026-04-29 17:59 52.15636 5.89199 23579 ft 324 kts 99°
2026-04-29 18:00 52.15101 5.92793 24054 ft 327 kts 99°
2026-04-29 18:00 52.14568 5.96353 24523 ft 329 kts 99°
2026-04-29 18:00 52.14029 5.99966 24987 ft 332 kts 98°
2026-04-29 18:00 52.13486 6.03620 25318 ft 337 kts 98°
2026-04-29 18:01 52.12921 6.07404 25356 ft 350 kts 99°
2026-04-29 18:01 52.12337 6.11317 25348 ft 364 kts 99°
2026-04-29 18:01 52.11734 6.15346 25350 ft 376 kts 99°
2026-04-29 18:01 52.11104 6.19583 25347 ft 388 kts 99°
2026-04-29 18:02 52.10581 6.23860 25480 ft 392 kts 90°
2026-04-29 18:02 52.11098 6.28163 24610 ft 418 kts 57°
2026-04-29 18:02 52.12162 6.32586 23102 ft 453 kts 98°
2026-04-29 18:02 52.11007 6.37316 23719 ft 443 kts 110°
2026-04-29 18:03 52.09866 6.41683 24680 ft 409 kts 108°
2026-04-29 18:03 52.08813 6.45886 24478 ft 403 kts 107°
2026-04-29 18:03 52.07801 6.50094 24351 ft 395 kts 106°
2026-04-29 18:03 52.06806 6.54209 24262 ft 387 kts 105°
2026-04-29 18:04 52.05841 6.58157 24501 ft 373 kts 105°
2026-04-29 18:04 52.05218 6.62171 24707 ft 355 kts 94°
2026-04-29 18:04 52.04950 6.65960 25725 ft 336 kts 90°
2026-04-29 18:04 52.04737 6.69658 26395 ft 328 kts 91°
2026-04-29 18:05 52.04463 6.73380 26495 ft 338 kts 95°
2026-04-29 18:05 52.03966 6.77144 26749 ft 349 kts 98°
2026-04-29 18:05 52.03430 6.81034 27332 ft 353 kts 97°
2026-04-29 18:05 52.02905 6.84866 27968 ft 354 kts 97°
2026-04-29 18:06 52.02374 6.88754 28570 ft 356 kts 97°
2026-04-29 18:06 52.01837 6.92696 29089 ft 359 kts 97°
2026-04-29 18:06 52.01297 6.96666 29605 ft 361 kts 97°
2026-04-29 18:06 52.00758 7.00638 30074 ft 362 kts 96°
2026-04-29 18:07 52.00216 7.04629 30435 ft 365 kts 96°
2026-04-29 18:07 51.99672 7.08631 30764 ft 367 kts 97°
2026-04-29 18:07 51.99121 7.12668 31048 ft 370 kts 96°
2026-04-29 18:07 51.98570 7.16711 31381 ft 372 kts 96°
2026-04-29 18:08 51.98012 7.20789 31710 ft 373 kts 96°
2026-04-29 18:08 51.97450 7.24893 32058 ft 374 kts 96°
2026-04-29 18:08 51.96888 7.28993 32356 ft 376 kts 96°
2026-04-29 18:08 51.96321 7.33116 32669 ft 376 kts 96°
2026-04-29 18:09 51.95746 7.37273 32940 ft 377 kts 96°
2026-04-29 18:09 51.95169 7.41435 33202 ft 379 kts 96°
2026-04-29 18:09 51.94595 7.45580 33487 ft 379 kts 96°
2026-04-29 18:09 51.94025 7.49691 33655 ft 381 kts 96°
2026-04-29 18:10 51.93441 7.53908 33867 ft 383 kts 96°
2026-04-29 18:10 51.92856 7.58125 34118 ft 384 kts 96°
2026-04-29 18:10 51.92271 7.62303 34410 ft 384 kts 96°
2026-04-29 18:10 51.91684 7.66503 34722 ft 381 kts 97°
2026-04-29 18:11 51.91107 7.70635 35002 ft 378 kts 97°
2026-04-29 18:11 51.90528 7.74768 35127 ft 377 kts 97°
2026-04-29 18:11 51.89947 7.78899 35223 ft 380 kts 97°
2026-04-29 18:11 51.89357 7.83075 35354 ft 382 kts 97°
2026-04-29 18:12 51.88766 7.87253 35365 ft 387 kts 97°
2026-04-29 18:12 51.87538 7.95897 35357 ft 398 kts 97°
2026-04-29 18:13 51.86287 8.04628 35352 ft 402 kts 97°
2026-04-29 18:13 51.85024 8.13422 35353 ft 404 kts 97°
2026-04-29 18:14 51.83751 8.22227 35358 ft 405 kts 97°
2026-04-29 18:14 51.82467 8.31066 35354 ft 407 kts 97°
2026-04-29 18:15 51.81168 8.39946 35359 ft 408 kts 97°
2026-04-29 18:15 51.79859 8.48841 35371 ft 409 kts 96°
2026-04-29 18:16 51.78540 8.57760 35380 ft 409 kts 96°
2026-04-29 18:16 51.77216 8.66663 35377 ft 410 kts 97°
2026-04-29 18:17 51.75876 8.75628 35378 ft 412 kts 97°
2026-04-29 18:17 51.74531 8.84566 35382 ft 413 kts 97°
2026-04-29 18:18 51.73172 8.93547 35381 ft 414 kts 97°
2026-04-29 18:18 51.71810 9.02500 35379 ft 415 kts 97°
2026-04-29 18:19 51.70425 9.11553 35383 ft 416 kts 97°
2026-04-29 18:19 51.69041 9.20553 35377 ft 416 kts 97°
2026-04-29 18:20 51.67650 9.29541 35379 ft 417 kts 97°
2026-04-29 18:20 51.66244 9.38582 35380 ft 417 kts 97°
2026-04-29 18:21 51.64834 9.47596 35381 ft 418 kts 97°
2026-04-29 18:21 51.63411 9.56641 35377 ft 418 kts 97°
2026-04-29 18:22 51.61982 9.65680 35376 ft 418 kts 97°
2026-04-29 18:22 51.60549 9.74686 35369 ft 419 kts 97°
2026-04-29 18:23 51.59099 9.83757 35372 ft 419 kts 97°
2026-04-29 18:23 51.57642 9.92823 35382 ft 420 kts 97°
2026-04-29 18:24 51.56185 10.01837 35383 ft 420 kts 97°
2026-04-29 18:24 51.54712 10.10905 35394 ft 420 kts 97°
2026-04-29 18:25 51.53238 10.19932 35389 ft 420 kts 97°
2026-04-29 18:25 51.51749 10.28996 35399 ft 420 kts 97°
2026-04-29 18:26 51.50259 10.38017 35396 ft 420 kts 97°
2026-04-29 18:26 51.48768 10.47002 35396 ft 421 kts 97°
2026-04-29 18:27 51.47258 10.56057 35398 ft 421 kts 97°
2026-04-29 18:27 51.45741 10.65098 35402 ft 421 kts 98°
2026-04-29 18:28 51.44227 10.74083 35403 ft 422 kts 98°
2026-04-29 18:28 51.42686 10.83177 35403 ft 422 kts 98°
2026-04-29 18:29 51.41147 10.92211 35402 ft 423 kts 98°
2026-04-29 18:29 51.39598 11.01256 35397 ft 424 kts 98°
2026-04-29 18:30 51.38032 11.10351 35394 ft 424 kts 97°
2026-04-29 18:30 51.36474 11.19359 35397 ft 424 kts 98°
2026-04-29 18:31 51.34901 11.28406 35393 ft 424 kts 98°
2026-04-29 18:31 51.33321 11.37445 35399 ft 424 kts 98°
2026-04-29 18:32 51.31726 11.46524 35392 ft 424 kts 98°
2026-04-29 18:32 51.29328 11.60084 35409 ft 424 kts 97°
2026-04-29 18:33 51.27724 11.69102 35397 ft 425 kts 98°
2026-04-29 18:33 51.26098 11.78195 35408 ft 426 kts 98°
2026-04-29 18:34 51.24744 11.85733 35410 ft 427 kts 98°
2026-04-29 18:34 51.22831 11.96327 35415 ft 427 kts 98°
2026-04-29 18:35 51.21188 12.05379 35429 ft 428 kts 98°
2026-04-29 18:35 51.19537 12.14433 35419 ft 429 kts 98°
2026-04-29 18:36 51.17867 12.23538 35413 ft 430 kts 98°
2026-04-29 18:36 51.16180 12.32694 35418 ft 430 kts 98°
2026-04-29 18:37 51.14498 12.41784 35410 ft 431 kts 98°
2026-04-29 18:37 51.12802 12.50894 35425 ft 431 kts 98°
2026-04-29 18:38 51.11093 12.60032 35421 ft 432 kts 98°
2026-04-29 18:38 51.09376 12.69171 35398 ft 433 kts 99°
2026-04-29 18:39 51.07644 12.78343 35411 ft 434 kts 99°
2026-04-29 18:39 51.05903 12.87517 35400 ft 435 kts 100°
2026-04-29 18:40 51.04155 12.96688 35402 ft 436 kts 99°
2026-04-29 18:40 51.02396 13.05864 35404 ft 437 kts 99°
2026-04-29 18:41 50.98830 13.24342 35380 ft 440 kts 100°
2026-04-29 18:42 50.97047 13.33511 35390 ft 440 kts 99°
2026-04-29 18:42 50.95238 13.42768 35400 ft 440 kts 100°
2026-04-29 18:43 50.93432 13.51967 35398 ft 441 kts 100°
2026-04-29 18:43 50.91610 13.61203 35407 ft 441 kts 100°
2026-04-29 18:44 50.89765 13.70512 35406 ft 442 kts 100°
2026-04-29 18:44 50.87929 13.79730 35385 ft 443 kts 101°
2026-04-29 18:45 50.86069 13.89012 35395 ft 443 kts 101°
2026-04-29 18:45 50.83556 13.97978 35405 ft 454 kts 114°
2026-04-29 18:46 50.79693 14.05962 35414 ft 468 kts 128°
2026-04-29 18:46 50.74888 14.12997 35408 ft 471 kts 131°
2026-04-29 18:47 50.70081 14.19937 35413 ft 471 kts 131°
2026-04-29 18:47 50.65251 14.26887 35424 ft 472 kts 131°
2026-04-29 18:48 50.60395 14.33849 35413 ft 473 kts 131°
2026-04-29 18:48 50.55564 14.40755 35403 ft 474 kts 131°
2026-04-29 18:49 50.50695 14.47691 35407 ft 475 kts 131°
2026-04-29 18:49 50.45832 14.54618 35396 ft 475 kts 130°
2026-04-29 18:50 50.41103 14.61776 35398 ft 474 kts 130°
2026-04-29 18:50 50.36377 14.68952 35403 ft 475 kts 130°
2026-04-29 18:51 50.31636 14.76126 35411 ft 476 kts 131°
2026-04-29 18:51 50.26868 14.83319 35409 ft 477 kts 131°
2026-04-29 18:52 50.22089 14.90506 35413 ft 479 kts 131°
2026-04-29 18:52 50.17292 14.97695 35407 ft 480 kts 131°
2026-04-29 18:53 50.12482 15.04882 35415 ft 481 kts 131°
2026-04-29 18:53 50.07684 15.12030 35415 ft 482 kts 131°
2026-04-29 18:54 50.02834 15.19232 35416 ft 483 kts 131°
2026-04-29 18:54 49.97961 15.26448 35406 ft 485 kts 132°
2026-04-29 18:55 49.93105 15.33617 35397 ft 486 kts 132°
2026-04-29 18:55 49.88199 15.40838 35384 ft 488 kts 132°
2026-04-29 18:56 49.83288 15.48045 35397 ft 488 kts 132°
2026-04-29 18:56 49.78377 15.55231 35380 ft 489 kts 132°
2026-04-29 18:57 49.73439 15.62435 35377 ft 490 kts 132°
2026-04-29 18:57 49.68481 15.69646 35370 ft 491 kts 133°
2026-04-29 18:58 49.63519 15.76843 35356 ft 493 kts 133°
2026-04-29 18:58 49.58504 15.84094 35345 ft 490 kts 133°
2026-04-29 18:59 49.56064 15.87607 35080 ft 483 kts 133°
2026-04-29 18:59 49.53605 15.91150 34458 ft 485 kts 133°
2026-04-29 18:59 49.51174 15.94647 33681 ft 489 kts 133°
2026-04-29 18:59 49.48664 15.98254 33039 ft 491 kts 133°
2026-04-29 19:00 49.46193 16.01795 32648 ft 487 kts 133°
2026-04-29 19:00 49.43746 16.05297 32268 ft 483 kts 133°
2026-04-29 19:00 49.41297 16.08798 31872 ft 480 kts 133°
2026-04-29 19:00 49.38885 16.12242 31479 ft 477 kts 133°
2026-04-29 19:01 49.36445 16.15721 30935 ft 479 kts 133°
2026-04-29 19:01 49.34021 16.19175 30406 ft 479 kts 133°
2026-04-29 19:01 49.31550 16.22583 29815 ft 481 kts 139°
2026-04-29 19:01 49.28713 16.25243 29318 ft 483 kts 152°
2026-04-29 19:02 49.25719 16.27458 28838 ft 481 kts 152°
2026-04-29 19:02 49.23684 16.28967 28539 ft 479 kts 152°
2026-04-29 19:02 49.19762 16.31876 28076 ft 472 kts 153°
2026-04-29 19:02 49.16817 16.34057 27667 ft 470 kts 153°
2026-04-29 19:03 49.13903 16.36211 27270 ft 467 kts 152°
2026-04-29 19:03 49.10976 16.38371 26904 ft 463 kts 153°
2026-04-29 19:03 49.08131 16.40468 26507 ft 457 kts 152°
2026-04-29 19:03 49.05270 16.42574 25944 ft 454 kts 153°
2026-04-29 19:04 49.02447 16.44650 25371 ft 451 kts 153°
2026-04-29 19:04 48.99637 16.46712 24802 ft 448 kts 153°
2026-04-29 19:04 48.96879 16.48735 24253 ft 444 kts 152°
2026-04-29 19:04 48.94112 16.50760 23629 ft 439 kts 152°
2026-04-29 19:05 48.91373 16.52763 22938 ft 435 kts 152°
2026-04-29 19:05 48.88692 16.54720 22264 ft 431 kts 153°
2026-04-29 19:05 48.85989 16.56692 21557 ft 428 kts 153°
2026-04-29 19:05 48.83333 16.58627 20900 ft 423 kts 153°